| time (UTC) | temp F | wind direction | speed MPH | gust MPH | rain 1hr in | rain 24hr in | rain mn in | humidity % | barometer mb |
| 20260505153058 | 79 | 183 | 2.0 | 10.0 | 0.00 | 0.00 | 0.00 | 80 | 1009.9 |
| 20260505151603 | 78 | 185 | 4.0 | 13.0 | 0.00 | 0.00 | 0.00 | 81 | 1009.8 |
| 20260505140108 | 77 | 189 | 2.0 | 11.0 | 0.00 | 0.00 | 0.00 | 85 | 1009.9 |
| 20260505130110 | 75 | 187 | 2.0 | 8.0 | 0.00 | 0.00 | 0.00 | 87 | 1009.7 |
| 20260505124619 | 74 | 168 | 2.0 | 10.0 | 0.00 | 0.00 | 0.00 | 88 | 1009.5 |
| 20260505123117 | 74 | 171 | 2.0 | 10.0 | 0.00 | 0.00 | 0.00 | 88 | 1009.5 |
| 20260505121600 | 73 | 0 | 2.0 | 8.0 | 0.00 | 0.00 | 0.00 | 87 | 1009.3 |
| 20260505120059 | 73 | 178 | 2.0 | 7.0 | 0.00 | 0.00 | 0.00 | 87 | 1009.0 |
| 20260505114601 | 73 | 177 | 1.0 | 6.0 | 0.00 | 0.00 | 0.00 | 87 | 1009.5 |
| 20260505113111 | 73 | 167 | 2.0 | 7.0 | 0.00 | 0.00 | 0.00 | 87 | 1009.4 |
| 20260505111600 | 73 | 174 | 1.0 | 7.0 | 0.00 | 0.00 | 0.00 | 87 | 1009.2 |
| 20260505101629 | 73 | 167 | 1.0 | 9.0 | 0.00 | 0.00 | 0.00 | 87 | 1009.2 |
| 20260505100101 | 73 | 168 | 2.0 | 8.0 | 0.00 | 0.00 | 0.00 | 87 | 1009.4 |
| 20260505094559 | 72 | 0 | 2.0 | 8.0 | 0.00 | 0.00 | 0.00 | 86 | 1009.2 |
| 20260505093059 | 72 | 171 | 0.0 | 6.0 | 0.00 | 0.00 | 0.00 | 86 | 1009.2 |
| 20260505091616 | 72 | 174 | 2.0 | 7.0 | 0.00 | 0.00 | 0.00 | 86 | 1009.5 |
| 20260505090057 | 72 | 167 | 1.0 | 6.0 | 0.00 | 0.00 | 0.00 | 86 | 1009.5 |
| 20260505084556 | 72 | 173 | 1.0 | 4.0 | 0.00 | 0.00 | 0.00 | 86 | 1009.6 |
| 20260505083105 | 72 | 169 | 1.0 | 7.0 | 0.00 | 0.00 | 0.00 | 86 | 1009.6 |
| 20260505081604 | 72 | 184 | 0.0 | 7.0 | 0.00 | 0.00 | 0.00 | 85 | 1009.7 |
| 20260505080115 | 72 | 0 | 2.0 | 8.0 | 0.00 | 0.00 | 0.00 | 85 | 1009.8 |
| 20260505074607 | 72 | 169 | 1.0 | 7.0 | 0.00 | 0.00 | 0.00 | 85 | 1009.8 |
| 20260505073058 | 72 | 0 | 2.0 | 7.0 | 0.00 | 0.00 | 0.00 | 84 | 1010.0 |
| 20260505071605 | 72 | 0 | 0.0 | 7.0 | 0.00 | 0.00 | 0.00 | 84 | 1010.0 |
| 20260505070059 | 71 | 170 | 2.0 | 8.0 | 0.00 | 0.00 | 0.00 | 83 | 1010.1 |
| 20260505064558 | 71 | 0 | 1.0 | 7.0 | 0.00 | 0.00 | 0.00 | 83 | 1010.4 |
| 20260505063139 | 72 | 198 | 0.0 | 8.0 | 0.00 | 0.00 | 0.00 | 82 | 1010.7 |
| 20260505061636 | 72 | 0 | 1.0 | 7.0 | 0.00 | 0.00 | 0.00 | 82 | 1011.0 |
| 20260505060105 | 72 | 209 | 1.0 | 7.0 | 0.00 | 0.00 | 0.00 | 81 | 1010.9 |
| 20260505054608 | 72 | 0 | 1.0 | 7.0 | 0.00 | 0.00 | 0.00 | 81 | 1010.8 |
| 20260505053100 | 72 | 0 | 1.0 | 8.0 | 0.00 | 0.00 | 0.00 | 80 | 1011.2 |
| 20260505051614 | 72 | 175 | 1.0 | 8.0 | 0.00 | 0.00 | 0.00 | 79 | 1011.2 |
| 20260505041600 | 73 | 170 | 2.0 | 12.0 | 0.00 | 0.00 | 0.00 | 77 | 1011.2 |
| 20260505040104 | 73 | 179 | 0.0 | 11.0 | 0.00 | 0.00 | 0.00 | 76 | 1011.7 |
| 20260505034558 | 74 | 160 | 4.0 | 12.0 | 0.00 | 0.00 | 0.00 | 75 | 1011.8 |
| 20260505033059 | 74 | 172 | 4.0 | 13.0 | 0.00 | 0.00 | 0.00 | 75 | 1011.8 |
| 20260505031600 | 74 | 0 | 5.0 | 11.0 | 0.00 | 0.00 | 0.00 | 74 | 1011.7 |
| 20260505030103 | 74 | 178 | 4.0 | 12.0 | 0.00 | 0.00 | 0.00 | 74 | 1011.7 |
| 20260505024558 | 74 | 160 | 5.0 | 11.0 | 0.00 | 0.00 | 0.00 | 74 | 1011.8 |
| 20260505023058 | 74 | 0 | 1.0 | 11.0 | 0.00 | 0.00 | 0.00 | 74 | 1011.7 |
| 20260505021557 | 75 | 187 | 3.0 | 14.0 | 0.00 | 0.00 | 0.00 | 73 | 1011.7 |
| 20260505020106 | 75 | 168 | 4.0 | 12.0 | 0.00 | 0.00 | 0.00 | 73 | 1011.6 |
| 20260505014600 | 75 | 0 | 4.0 | 12.0 | 0.00 | 0.00 | 0.00 | 72 | 1011.4 |
| 20260505013106 | 76 | 223 | 4.0 | 15.0 | 0.00 | 0.00 | 0.00 | 71 | 1011.3 |
| 20260505011601 | 76 | 184 | 4.0 | 12.0 | 0.00 | 0.00 | 0.00 | 69 | 1011.2 |
| 20260505010128 | 77 | 158 | 4.0 | 11.0 | 0.00 | 0.00 | 0.00 | 68 | 1011.1 |
| 20260505004559 | 77 | 204 | 4.0 | 10.0 | 0.00 | 0.00 | 0.00 | 67 | 1011.0 |
| 20260505003100 | 78 | 186 | 2.0 | 14.0 | 0.00 | 0.00 | 0.00 | 65 | 1010.9 |
| 20260505001604 | 79 | 210 | 5.0 | 13.0 | 0.00 | 0.00 | 0.00 | 64 | 1010.9 |
| 20260504234559 | 79 | 169 | 3.0 | 11.0 | 0.00 | 0.00 | 0.00 | 64 | 1011.1 |
| 20260504233109 | 79 | 173 | 2.0 | 15.0 | 0.00 | 0.00 | 0.00 | 64 | 1011.4 |
| 20260504231604 | 79 | 219 | 2.0 | 15.0 | 0.00 | 0.00 | 0.00 | 63 | 1011.5 |
| 20260504230100 | 79 | 186 | 4.0 | 13.0 | 0.00 | 0.00 | 0.00 | 62 | 1011.6 |
| 20260504224558 | 79 | 189 | 6.0 | 15.0 | 0.00 | 0.00 | 0.00 | 62 | 1011.6 |
| 20260504223058 | 80 | 190 | 5.0 | 15.0 | 0.00 | 0.00 | 0.00 | 61 | 1011.7 |
| 20260504221600 | 80 | 167 | 7.0 | 14.0 | 0.00 | 0.00 | 0.00 | 60 | 1011.9 |
| 20260504220058 | 80 | 171 | 2.0 | 11.0 | 0.00 | 0.00 | 0.00 | 59 | 1012.0 |
| 20260504214558 | 81 | 187 | 4.0 | 12.0 | 0.00 | 0.00 | 0.00 | 58 | 1012.0 |
| 20260504213057 | 82 | 192 | 4.0 | 12.0 | 0.00 | 0.00 | 0.00 | 56 | 1012.1 |
| 20260504211600 | 82 | 169 | 4.0 | 11.0 | 0.00 | 0.00 | 0.00 | 54 | 1012.2 |
| 20260504210109 | 83 | 172 | 3.0 | 9.0 | 0.00 | 0.00 | 0.00 | 54 | 1012.3 |
| 20260504204607 | 83 | 148 | 3.0 | 8.0 | 0.00 | 0.00 | 0.00 | 53 | 1012.6 |
| 20260504203110 | 83 | 139 | 3.0 | 11.0 | 0.00 | 0.00 | 0.00 | 52 | 1012.9 |
| 20260504201600 | 83 | 161 | 3.0 | 8.0 | 0.00 | 0.00 | 0.00 | 53 | 1013.2 |
| 20260504200100 | 83 | 223 | 4.0 | 10.0 | 0.00 | 0.00 | 0.00 | 52 | 1013.4 |
| 20260504194610 | 83 | 167 | 3.0 | 10.0 | 0.00 | 0.00 | 0.00 | 51 | 1013.6 |
| 20260504193107 | 84 | 191 | 5.0 | 10.0 | 0.00 | 0.00 | 0.00 | 51 | 1013.7 |
| 20260504191600 | 82 | 209 | 5.0 | 11.0 | 0.00 | 0.00 | 0.00 | 51 | 1014.0 |
| 20260504190129 | 82 | 153 | 2.0 | 11.0 | 0.00 | 0.00 | 0.00 | 52 | 1014.2 |
| 20260504184600 | 82 | 232 | 3.0 | 9.0 | 0.00 | 0.00 | 0.00 | 51 | 1014.3 |
| 20260504183101 | 81 | 198 | 5.0 | 14.0 | 0.00 | 0.00 | 0.00 | 52 | 1014.4 |
| 20260504181559 | 82 | 208 | 2.0 | 10.0 | 0.00 | 0.00 | 0.00 | 52 | 1014.5 |
| 20260504180059 | 82 | 187 | 5.0 | 15.0 | 0.00 | 0.00 | 0.00 | 51 | 1014.9 |
| 20260504174608 | 80 | 180 | 5.0 | 12.0 | 0.00 | 0.00 | 0.00 | 52 | 1015.1 |
| 20260504173101 | 80 | 136 | 6.0 | 14.0 | 0.00 | 0.00 | 0.00 | 54 | 1015.2 |
| 20260504171601 | 80 | 190 | 3.0 | 13.0 | 0.00 | 0.00 | 0.00 | 50 | 1015.6 |
| 20260504160107 | 77 | 125 | 3.0 | 14.0 | 0.00 | 0.00 | 0.00 | 60 | 1016.5 |